Year,Month,Day,Hour,Minute,Value (Times are PST for temperature in C)
2011,08,12,00,00,10.90
2011,08,12,00,01,10.90
2011,08,12,00,02,10.90
2011,08,12,00,03,10.90
2011,08,12,00,04,10.80
2011,08,12,00,05,10.80
2011,08,12,00,06,10.80
2011,08,12,00,07,10.70
2011,08,12,00,08,10.70
2011,08,12,00,09,10.70
2011,08,12,00,10,10.70
2011,08,12,00,11,10.70
2011,08,12,00,12,10.70
2011,08,12,00,13,10.70
2011,08,12,00,14,10.70
2011,08,12,00,15,10.80
2011,08,12,00,16,10.80
2011,08,12,00,17,10.80
2011,08,12,00,18,10.80
2011,08,12,00,19,10.80
2011,08,12,00,20,10.80
2011,08,12,00,21,10.80
2011,08,12,00,22,10.80
2011,08,12,00,23,10.80
2011,08,12,00,24,10.80
2011,08,12,00,25,10.80
2011,08,12,00,26,10.80
2011,08,12,00,27,10.80
2011,08,12,00,28,10.80
2011,08,12,00,29,10.80
2011,08,12,00,30,10.80
2011,08,12,00,31,10.90
2011,08,12,00,32,10.90
2011,08,12,00,33,10.90
2011,08,12,00,34,10.90
2011,08,12,00,35,10.90
2011,08,12,00,36,10.90
2011,08,12,00,37,10.90
2011,08,12,00,38,10.90
2011,08,12,00,39,10.90
2011,08,12,00,40,10.90
2011,08,12,00,41,10.90
2011,08,12,00,42,10.90
2011,08,12,00,43,10.90
2011,08,12,00,44,11.00
2011,08,12,00,45,11.10
2011,08,12,00,46,11.10
2011,08,12,00,47,11.10
2011,08,12,00,48,11.10
2011,08,12,00,49,11.10
2011,08,12,00,50,11.20
2011,08,12,00,51,11.20
2011,08,12,00,52,11.20
2011,08,12,00,53,11.20
2011,08,12,00,54,11.20
2011,08,12,00,55,11.20
2011,08,12,00,56,11.20
2011,08,12,00,57,11.20
2011,08,12,00,58,11.20
2011,08,12,00,59,11.20
2011,08,12,01,00,11.20
2011,08,12,01,01,11.20
2011,08,12,01,02,11.20
2011,08,12,01,03,11.20
2011,08,12,01,04,11.20
2011,08,12,01,05,11.20
2011,08,12,01,06,11.20
2011,08,12,01,07,11.30
2011,08,12,01,08,11.30
2011,08,12,01,09,11.30
2011,08,12,01,10,11.30
2011,08,12,01,11,11.30
2011,08,12,01,12,11.30
2011,08,12,01,13,11.30
2011,08,12,01,14,11.30
2011,08,12,01,15,11.30
2011,08,12,01,16,11.30
2011,08,12,01,17,11.30
2011,08,12,01,18,11.30
2011,08,12,01,19,11.30
2011,08,12,01,20,11.30
2011,08,12,01,21,11.30
2011,08,12,01,22,11.30
2011,08,12,01,23,11.30
2011,08,12,01,24,11.30
2011,08,12,01,25,11.30
2011,08,12,01,26,11.30
2011,08,12,01,27,11.30
2011,08,12,01,28,11.30
2011,08,12,01,29,11.30
2011,08,12,01,30,11.20
2011,08,12,01,31,11.20
2011,08,12,01,32,11.20
2011,08,12,01,33,11.20
2011,08,12,01,34,11.20
2011,08,12,01,35,11.20
2011,08,12,01,36,11.20
2011,08,12,01,37,11.20
2011,08,12,01,38,11.20
2011,08,12,01,39,11.10
2011,08,12,01,40,11.10
2011,08,12,01,41,11.10
2011,08,12,01,42,11.10
2011,08,12,01,43,11.10
2011,08,12,01,44,11.10
2011,08,12,01,45,11.10
2011,08,12,01,46,11.10
2011,08,12,01,47,11.10
2011,08,12,01,48,11.10
2011,08,12,01,49,11.10
2011,08,12,01,50,11.10
2011,08,12,01,51,11.10
2011,08,12,01,52,11.10
2011,08,12,01,53,11.10
2011,08,12,01,54,11.10
2011,08,12,01,55,11.10
2011,08,12,01,56,11.10
2011,08,12,01,57,11.00
2011,08,12,01,58,10.90
2011,08,12,01,59,10.90
2011,08,12,02,00,10.90
2011,08,12,02,01,10.90
2011,08,12,02,02,10.90
2011,08,12,02,03,10.90
2011,08,12,02,04,10.90
2011,08,12,02,05,10.90
2011,08,12,02,06,10.90
2011,08,12,02,07,10.90
2011,08,12,02,08,10.90
2011,08,12,02,09,10.90
2011,08,12,02,10,10.90
2011,08,12,02,11,10.90
2011,08,12,02,12,10.80
2011,08,12,02,13,10.80
2011,08,12,02,14,10.80
2011,08,12,02,15,10.80
2011,08,12,02,16,10.80
2011,08,12,02,17,10.80
2011,08,12,02,18,10.80
2011,08,12,02,19,10.80
2011,08,12,02,20,10.80
2011,08,12,02,21,10.80
2011,08,12,02,22,10.80
2011,08,12,02,23,10.70
2011,08,12,02,24,10.70
2011,08,12,02,25,10.70
2011,08,12,02,26,10.70
2011,08,12,02,27,10.70
2011,08,12,02,28,10.70
2011,08,12,02,29,10.80
2011,08,12,02,30,10.80
2011,08,12,02,31,10.80
2011,08,12,02,32,10.80
2011,08,12,02,33,10.70
2011,08,12,02,34,10.70
2011,08,12,02,35,10.70
2011,08,12,02,36,10.70
2011,08,12,02,37,10.70
2011,08,12,02,38,10.70
2011,08,12,02,39,10.70
2011,08,12,02,40,10.70
2011,08,12,02,41,10.70
2011,08,12,02,42,10.70
2011,08,12,02,43,10.70
2011,08,12,02,44,10.70
2011,08,12,02,45,10.70
2011,08,12,02,46,10.70
2011,08,12,02,47,10.70
2011,08,12,02,48,10.60
2011,08,12,02,49,10.60
2011,08,12,02,50,10.60
2011,08,12,02,51,10.60
2011,08,12,02,52,10.60
2011,08,12,02,53,10.60
2011,08,12,02,54,10.60
2011,08,12,02,55,10.60
2011,08,12,02,56,10.60
2011,08,12,02,57,10.60
2011,08,12,02,58,10.60
2011,08,12,02,59,10.60
2011,08,12,03,00,10.60
2011,08,12,03,01,10.60
2011,08,12,03,02,10.50
2011,08,12,03,03,10.40
2011,08,12,03,04,10.40
2011,08,12,03,05,10.40
2011,08,12,03,06,10.40
2011,08,12,03,07,10.40
2011,08,12,03,08,10.40
2011,08,12,03,09,10.40
2011,08,12,03,10,10.40
2011,08,12,03,11,10.40
2011,08,12,03,12,10.30
2011,08,12,03,13,10.30
2011,08,12,03,14,10.30
2011,08,12,03,15,10.30
2011,08,12,03,16,10.30
2011,08,12,03,17,10.30
2011,08,12,03,18,10.20
2011,08,12,03,19,10.20
2011,08,12,03,20,10.20
2011,08,12,03,21,10.20
2011,08,12,03,22,10.10
2011,08,12,03,23,10.10
2011,08,12,03,24,10.10
2011,08,12,03,25,10.10
2011,08,12,03,26,10.10
2011,08,12,03,27,10.10
2011,08,12,03,28,10.10
2011,08,12,03,29,10.10
2011,08,12,03,30,10.10
2011,08,12,03,31,10.10
2011,08,12,03,32,10.10
2011,08,12,03,33,10.00
2011,08,12,03,34,9.90
2011,08,12,03,35,9.90
2011,08,12,03,36,9.90
2011,08,12,03,37,9.90
2011,08,12,03,38,9.90
2011,08,12,03,39,9.90
2011,08,12,03,40,9.90
2011,08,12,03,41,9.90
2011,08,12,03,42,9.90
2011,08,12,03,43,9.90
2011,08,12,03,44,9.90
2011,08,12,03,45,9.80
2011,08,12,03,46,9.80
2011,08,12,03,47,9.80
2011,08,12,03,48,9.80
2011,08,12,03,49,9.70
2011,08,12,03,50,9.70
2011,08,12,03,51,9.70
2011,08,12,03,52,9.70
2011,08,12,03,53,9.70
2011,08,12,03,54,9.70
2011,08,12,03,55,9.70
2011,08,12,03,56,9.70
2011,08,12,03,57,9.70
2011,08,12,03,58,9.70
2011,08,12,03,59,9.70
2011,08,12,04,00,9.60
2011,08,12,04,01,9.60
2011,08,12,04,02,9.60
2011,08,12,04,03,9.50
2011,08,12,04,04,9.50
2011,08,12,04,05,9.40
2011,08,12,04,06,9.40
2011,08,12,04,07,9.40
2011,08,12,04,08,9.30
2011,08,12,04,09,9.30
2011,08,12,04,10,9.30
2011,08,12,04,11,9.20
2011,08,12,04,12,9.20
2011,08,12,04,13,9.20
2011,08,12,04,14,9.20
2011,08,12,04,15,9.20
2011,08,12,04,16,9.10
2011,08,12,04,17,9.10
2011,08,12,04,18,9.10
2011,08,12,04,19,9.10
2011,08,12,04,20,9.00
2011,08,12,04,21,9.00
2011,08,12,04,22,9.00
2011,08,12,04,23,9.00
2011,08,12,04,24,8.90
2011,08,12,04,25,8.90
2011,08,12,04,26,8.90
2011,08,12,04,27,8.90
2011,08,12,04,28,8.90
2011,08,12,04,29,8.90
2011,08,12,04,30,8.90
2011,08,12,04,31,8.90
2011,08,12,04,32,8.90
2011,08,12,04,33,8.90
2011,08,12,04,34,8.90
2011,08,12,04,35,8.90
2011,08,12,04,36,8.90
2011,08,12,04,37,8.90
2011,08,12,04,38,8.90
2011,08,12,04,39,8.90
2011,08,12,04,40,8.90
2011,08,12,04,41,8.90
2011,08,12,04,42,8.90
2011,08,12,04,43,8.80
2011,08,12,04,44,8.80
2011,08,12,04,45,8.80
2011,08,12,04,46,8.80
2011,08,12,04,47,8.70
2011,08,12,04,48,8.70
2011,08,12,04,49,8.70
2011,08,12,04,50,8.70
2011,08,12,04,51,8.70
2011,08,12,04,52,8.70
2011,08,12,04,53,8.60
2011,08,12,04,54,8.60
2011,08,12,04,55,8.60
2011,08,12,04,56,8.60
2011,08,12,04,57,8.50
2011,08,12,04,58,8.50
2011,08,12,04,59,8.50
2011,08,12,05,00,8.50
2011,08,12,05,01,8.50
2011,08,12,05,02,8.50
2011,08,12,05,03,8.50
2011,08,12,05,04,8.40
2011,08,12,05,05,8.40
2011,08,12,05,06,8.40
2011,08,12,05,07,8.40
2011,08,12,05,08,8.30
2011,08,12,05,09,8.30
2011,08,12,05,10,8.30
2011,08,12,05,11,8.30
2011,08,12,05,12,8.20
2011,08,12,05,13,8.20
2011,08,12,05,14,8.20
2011,08,12,05,15,8.20
2011,08,12,05,16,8.20
2011,08,12,05,17,8.20
2011,08,12,05,18,8.20
2011,08,12,05,19,8.20
2011,08,12,05,20,8.20
2011,08,12,05,21,8.20
2011,08,12,05,22,8.20
2011,08,12,05,23,8.20
2011,08,12,05,24,8.20
2011,08,12,05,25,8.20
2011,08,12,05,26,8.20
2011,08,12,05,27,8.10
2011,08,12,05,28,8.10
2011,08,12,05,29,8.10
2011,08,12,05,30,8.10
2011,08,12,05,31,8.10
2011,08,12,05,32,8.10
2011,08,12,05,33,8.10
2011,08,12,05,34,8.10
2011,08,12,05,35,8.10
2011,08,12,05,36,8.10
2011,08,12,05,37,8.10
2011,08,12,05,38,8.10
2011,08,12,05,39,8.10
2011,08,12,05,40,8.10
2011,08,12,05,41,8.10
2011,08,12,05,42,8.10
2011,08,12,05,43,8.10
2011,08,12,05,44,8.10
2011,08,12,05,45,8.10
2011,08,12,05,46,8.00
2011,08,12,05,47,8.00
2011,08,12,05,48,8.00
2011,08,12,05,49,8.00
2011,08,12,05,50,8.00
2011,08,12,05,51,7.90
2011,08,12,05,52,7.90
2011,08,12,05,53,7.90
2011,08,12,05,54,7.90
2011,08,12,05,55,7.90
2011,08,12,05,56,7.90
2011,08,12,05,57,7.90
2011,08,12,05,58,7.90
2011,08,12,05,59,7.80
2011,08,12,06,00,7.80
2011,08,12,06,01,7.80
2011,08,12,06,02,7.80
2011,08,12,06,03,7.80
2011,08,12,06,04,7.80
2011,08,12,06,05,7.80
2011,08,12,06,06,7.80
2011,08,12,06,07,7.80
2011,08,12,06,08,7.80
2011,08,12,06,09,7.80
2011,08,12,06,10,7.80
2011,08,12,06,11,7.80
2011,08,12,06,12,7.80
2011,08,12,06,13,7.80
2011,08,12,06,14,7.80
2011,08,12,06,15,7.80
2011,08,12,06,16,7.70
2011,08,12,06,17,7.70
2011,08,12,06,18,7.70
2011,08,12,06,19,7.70
2011,08,12,06,20,7.70
2011,08,12,06,21,7.70
2011,08,12,06,22,7.70
2011,08,12,06,23,7.70
2011,08,12,06,24,7.70
2011,08,12,06,25,7.70
2011,08,12,06,26,7.70
2011,08,12,06,27,7.70
2011,08,12,06,28,7.70
2011,08,12,06,29,7.70
2011,08,12,06,30,7.70
2011,08,12,06,31,7.70
2011,08,12,06,32,7.70
2011,08,12,06,33,7.70
2011,08,12,06,34,7.70
2011,08,12,06,35,7.70
2011,08,12,06,36,7.70
2011,08,12,06,37,7.70
2011,08,12,06,38,7.70
2011,08,12,06,39,7.70
2011,08,12,06,40,7.70
2011,08,12,06,41,7.70
2011,08,12,06,42,7.70
2011,08,12,06,43,7.70
2011,08,12,06,44,7.70
2011,08,12,06,45,7.70
2011,08,12,06,46,7.70
2011,08,12,06,47,7.70
2011,08,12,06,48,7.70
2011,08,12,06,49,7.70
2011,08,12,06,50,7.70
2011,08,12,06,51,7.70
2011,08,12,06,52,7.70
2011,08,12,06,53,7.80
2011,08,12,06,54,7.80
2011,08,12,06,55,7.80
2011,08,12,06,56,7.90
2011,08,12,06,57,7.90
2011,08,12,06,58,8.00
2011,08,12,06,59,8.00
2011,08,12,07,00,8.10
2011,08,12,07,01,8.10
2011,08,12,07,02,8.20
2011,08,12,07,03,8.20
2011,08,12,07,04,8.20
2011,08,12,07,05,8.20
2011,08,12,07,06,8.20
2011,08,12,07,07,8.20
2011,08,12,07,08,8.20
2011,08,12,07,09,8.20
2011,08,12,07,10,8.20
2011,08,12,07,11,8.20
2011,08,12,07,12,8.20
2011,08,12,07,13,8.20
2011,08,12,07,14,8.20
2011,08,12,07,15,8.20
2011,08,12,07,16,8.20
2011,08,12,07,17,8.20
2011,08,12,07,18,8.20
2011,08,12,07,19,8.20
2011,08,12,07,20,8.20
2011,08,12,07,21,8.20
2011,08,12,07,22,8.20
2011,08,12,07,23,8.30
2011,08,12,07,24,8.30
2011,08,12,07,25,8.30
2011,08,12,07,26,8.30
2011,08,12,07,27,8.30
2011,08,12,07,28,8.40
2011,08,12,07,29,8.40
2011,08,12,07,30,8.40
2011,08,12,07,31,8.40
2011,08,12,07,32,8.50
2011,08,12,07,33,8.50
2011,08,12,07,34,8.50
2011,08,12,07,35,8.50
2011,08,12,07,36,8.50
2011,08,12,07,37,8.60
2011,08,12,07,38,8.70
2011,08,12,07,39,8.70
2011,08,12,07,40,8.70
2011,08,12,07,41,8.80
2011,08,12,07,42,8.90
2011,08,12,07,43,9.00
2011,08,12,07,44,9.00
2011,08,12,07,45,9.20
2011,08,12,07,46,9.20
2011,08,12,07,47,9.30
2011,08,12,07,48,9.40
2011,08,12,07,49,9.40
2011,08,12,07,50,9.50
2011,08,12,07,51,9.50
2011,08,12,07,52,9.60
2011,08,12,07,53,9.60
2011,08,12,07,54,9.60
2011,08,12,07,55,9.70
2011,08,12,07,56,9.70
2011,08,12,07,57,9.70
2011,08,12,07,58,9.80
2011,08,12,07,59,9.80
2011,08,12,08,00,9.80
2011,08,12,08,01,9.90
2011,08,12,08,02,9.90
2011,08,12,08,03,9.90
2011,08,12,08,04,9.90
2011,08,12,08,05,10.00
2011,08,12,08,06,10.10
2011,08,12,08,07,10.10
2011,08,12,08,08,10.20
2011,08,12,08,09,10.20
2011,08,12,08,10,10.30
2011,08,12,08,11,10.30
2011,08,12,08,12,10.40
2011,08,12,08,13,10.40
2011,08,12,08,14,10.50
2011,08,12,08,15,10.60
2011,08,12,08,16,10.70
2011,08,12,08,17,10.70
2011,08,12,08,18,10.80
2011,08,12,08,19,10.90
2011,08,12,08,20,10.90
2011,08,12,08,21,10.90
2011,08,12,08,22,10.90
2011,08,12,08,23,11.00
2011,08,12,08,24,11.10
2011,08,12,08,25,11.10
2011,08,12,08,26,11.10
2011,08,12,08,27,11.10
2011,08,12,08,28,11.10
2011,08,12,08,29,11.10
2011,08,12,08,30,11.10
2011,08,12,08,31,11.10
2011,08,12,08,32,11.10
2011,08,12,08,33,11.10
2011,08,12,08,34,11.10
2011,08,12,08,35,11.20
2011,08,12,08,36,11.20
2011,08,12,08,37,11.20
2011,08,12,08,38,11.30
2011,08,12,08,39,11.30
2011,08,12,08,40,11.40
2011,08,12,08,41,11.40
2011,08,12,08,42,11.40
2011,08,12,08,43,11.40
2011,08,12,08,44,11.50
2011,08,12,08,45,11.60
2011,08,12,08,46,11.60
2011,08,12,08,47,11.60
2011,08,12,08,48,11.60
2011,08,12,08,49,11.60
2011,08,12,08,50,11.60
2011,08,12,08,51,11.60
2011,08,12,08,52,11.60
2011,08,12,08,53,11.60
2011,08,12,08,54,11.70
2011,08,12,08,55,11.80
2011,08,12,08,56,11.80
2011,08,12,08,57,11.80
2011,08,12,08,58,11.80
2011,08,12,08,59,11.90
2011,08,12,09,00,11.90
2011,08,12,09,01,12.00
2011,08,12,09,02,12.10
2011,08,12,09,03,12.20
2011,08,12,09,04,12.20
2011,08,12,09,05,12.10
2011,08,12,09,06,12.10
2011,08,12,09,07,12.20
2011,08,12,09,08,12.20
2011,08,12,09,09,12.30
2011,08,12,09,10,12.30
2011,08,12,09,11,12.40
2011,08,12,09,12,12.40
2011,08,12,09,13,12.40
2011,08,12,09,14,12.40
2011,08,12,09,15,12.50
2011,08,12,09,16,12.50
2011,08,12,09,17,12.50
2011,08,12,09,18,12.60
2011,08,12,09,19,12.60
2011,08,12,09,20,12.70
2011,08,12,09,21,12.60
2011,08,12,09,22,12.60
2011,08,12,09,23,12.70
2011,08,12,09,24,12.80
2011,08,12,09,25,12.80
2011,08,12,09,26,12.80
2011,08,12,09,27,12.70
2011,08,12,09,28,12.70
2011,08,12,09,29,12.60
2011,08,12,09,30,12.60
2011,08,12,09,31,12.50
2011,08,12,09,32,12.40
2011,08,12,09,33,12.40
2011,08,12,09,34,12.30
2011,08,12,09,35,12.30
2011,08,12,09,36,12.30
2011,08,12,09,37,12.30
2011,08,12,09,38,12.30
2011,08,12,09,39,12.30
2011,08,12,09,40,12.40
2011,08,12,09,41,12.30
2011,08,12,09,42,12.30
2011,08,12,09,43,12.30
2011,08,12,09,44,12.30
2011,08,12,09,45,12.30
2011,08,12,09,46,12.30
2011,08,12,09,47,12.30
2011,08,12,09,48,12.30
2011,08,12,09,49,12.40
2011,08,12,09,50,12.40
2011,08,12,09,51,12.50
2011,08,12,09,52,12.50
2011,08,12,09,53,12.50
2011,08,12,09,54,12.60
2011,08,12,09,55,12.60
2011,08,12,09,56,12.70
2011,08,12,09,57,12.70
2011,08,12,09,58,12.60
2011,08,12,09,59,12.70
2011,08,12,10,00,12.70
2011,08,12,10,01,12.80
2011,08,12,10,02,12.80
2011,08,12,10,03,12.90
2011,08,12,10,04,12.90
2011,08,12,10,05,12.90
2011,08,12,10,06,12.90
2011,08,12,10,07,12.90
2011,08,12,10,08,12.80
2011,08,12,10,09,12.80
2011,08,12,10,10,12.80
2011,08,12,10,11,12.80
2011,08,12,10,12,12.80
2011,08,12,10,13,12.80
2011,08,12,10,14,12.80
2011,08,12,10,15,12.80
2011,08,12,10,16,12.80
2011,08,12,10,17,12.80
2011,08,12,10,18,12.80
2011,08,12,10,19,12.80
2011,08,12,10,20,12.80
2011,08,12,10,21,12.70
2011,08,12,10,22,12.70
2011,08,12,10,23,12.80
2011,08,12,10,24,12.80
2011,08,12,10,25,12.90
2011,08,12,10,26,12.90
2011,08,12,10,27,12.90
2011,08,12,10,28,12.90
2011,08,12,10,29,12.90
2011,08,12,10,30,13.00
2011,08,12,10,31,13.00
2011,08,12,10,32,13.00
2011,08,12,10,33,12.90
2011,08,12,10,34,12.80
2011,08,12,10,35,12.90
2011,08,12,10,36,12.80
2011,08,12,10,37,12.90
2011,08,12,10,38,12.90
2011,08,12,10,39,12.90
2011,08,12,10,40,12.80
2011,08,12,10,41,12.80
2011,08,12,10,42,12.80
2011,08,12,10,43,12.80
2011,08,12,10,44,12.80
2011,08,12,10,45,12.70
2011,08,12,10,46,12.70
2011,08,12,10,47,12.70
2011,08,12,10,48,12.70
2011,08,12,10,49,12.60
2011,08,12,10,50,12.60
2011,08,12,10,51,12.70
2011,08,12,10,52,12.70
2011,08,12,10,53,12.80
2011,08,12,10,54,12.80
2011,08,12,10,55,12.80
2011,08,12,10,56,12.80
2011,08,12,10,57,12.80
2011,08,12,10,58,12.80
2011,08,12,10,59,12.80
2011,08,12,11,00,12.80
2011,08,12,11,01,12.80
2011,08,12,11,02,12.80
2011,08,12,11,03,12.80
2011,08,12,11,04,12.80
2011,08,12,11,05,12.90
2011,08,12,11,06,13.10
2011,08,12,11,07,13.10
2011,08,12,11,08,13.20
2011,08,12,11,09,13.30
2011,08,12,11,10,13.30
2011,08,12,11,11,13.40
2011,08,12,11,12,13.40
2011,08,12,11,13,13.40
2011,08,12,11,14,13.40
2011,08,12,11,15,13.40
2011,08,12,11,16,13.40
2011,08,12,11,17,13.40
2011,08,12,11,18,13.40
2011,08,12,11,19,13.30
2011,08,12,11,20,13.30
2011,08,12,11,21,13.30
2011,08,12,11,22,13.30
2011,08,12,11,23,13.30
2011,08,12,11,24,13.20
2011,08,12,11,25,13.20
2011,08,12,11,26,13.20
2011,08,12,11,27,13.30
2011,08,12,11,28,13.30
2011,08,12,11,29,13.30
2011,08,12,11,30,13.20
2011,08,12,11,31,13.10
2011,08,12,11,32,13.10
2011,08,12,11,33,13.10
2011,08,12,11,34,13.10
2011,08,12,11,35,13.10
2011,08,12,11,36,13.00
2011,08,12,11,37,13.00
2011,08,12,11,38,13.10
2011,08,12,11,39,13.10
2011,08,12,11,40,13.10
2011,08,12,11,41,13.20
2011,08,12,11,42,13.30
2011,08,12,11,43,13.40
2011,08,12,11,44,13.50
2011,08,12,11,45,13.50
2011,08,12,11,46,13.60
2011,08,12,11,47,13.60
2011,08,12,11,48,13.70
2011,08,12,11,49,13.70
2011,08,12,11,50,13.60
2011,08,12,11,51,13.70
2011,08,12,11,52,13.70
2011,08,12,11,53,13.70
2011,08,12,11,54,13.80
2011,08,12,11,55,13.80
2011,08,12,11,56,13.90
2011,08,12,11,57,13.90
2011,08,12,11,58,14.00
2011,08,12,11,59,14.10
2011,08,12,12,00,14.20
2011,08,12,12,01,14.20
2011,08,12,12,02,14.30
2011,08,12,12,03,14.40
2011,08,12,12,04,14.40
2011,08,12,12,05,14.50
2011,08,12,12,06,14.40
2011,08,12,12,07,14.40
2011,08,12,12,08,14.30
2011,08,12,12,09,14.20
2011,08,12,12,10,14.20
2011,08,12,12,11,14.20
2011,08,12,12,12,14.20
2011,08,12,12,13,14.20
2011,08,12,12,14,14.30
2011,08,12,12,15,14.40
2011,08,12,12,16,14.40
2011,08,12,12,17,14.50
2011,08,12,12,18,14.50
2011,08,12,12,19,14.60
2011,08,12,12,20,14.60
2011,08,12,12,21,14.70
2011,08,12,12,22,14.80
2011,08,12,12,23,14.80
2011,08,12,12,24,14.90
2011,08,12,12,25,14.90
2011,08,12,12,26,14.90
2011,08,12,12,27,14.90
2011,08,12,12,28,14.90
2011,08,12,12,29,14.80
2011,08,12,12,30,14.70
2011,08,12,12,31,14.70
2011,08,12,12,32,14.60
2011,08,12,12,33,14.50
2011,08,12,12,34,14.40
2011,08,12,12,35,14.40
2011,08,12,12,36,14.40
2011,08,12,12,37,14.40
2011,08,12,12,38,14.40
2011,08,12,12,39,14.40
2011,08,12,12,40,14.50
2011,08,12,12,41,14.60
2011,08,12,12,42,14.60
2011,08,12,12,43,14.60
2011,08,12,12,44,14.60
2011,08,12,12,45,14.70
2011,08,12,12,46,14.70
2011,08,12,12,47,14.60
2011,08,12,12,48,14.60
2011,08,12,12,49,14.50
2011,08,12,12,50,14.50
2011,08,12,12,51,14.40
2011,08,12,12,52,14.50
2011,08,12,12,53,14.50
2011,08,12,12,54,14.60
2011,08,12,12,55,14.60
2011,08,12,12,56,14.60
2011,08,12,12,57,14.70
2011,08,12,12,58,14.80
2011,08,12,12,59,14.80
2011,08,12,13,00,14.80
2011,08,12,13,01,14.90
2011,08,12,13,02,15.00
2011,08,12,13,03,15.10
2011,08,12,13,04,15.20
2011,08,12,13,05,15.20
2011,08,12,13,06,15.30
2011,08,12,13,07,15.20
2011,08,12,13,08,15.10
2011,08,12,13,09,15.00
2011,08,12,13,10,14.90
2011,08,12,13,11,14.90
2011,08,12,13,12,14.90
2011,08,12,13,13,14.80
2011,08,12,13,14,14.80
2011,08,12,13,15,14.70
2011,08,12,13,16,14.60
2011,08,12,13,17,14.60
2011,08,12,13,18,14.50
2011,08,12,13,19,14.50
2011,08,12,13,20,14.60
2011,08,12,13,21,14.50
2011,08,12,13,22,14.50
2011,08,12,13,23,14.60
2011,08,12,13,24,14.70
2011,08,12,13,25,14.80
2011,08,12,13,26,14.80
2011,08,12,13,27,14.80
2011,08,12,13,28,14.80
2011,08,12,13,29,14.80
2011,08,12,13,30,14.80
2011,08,12,13,31,14.80
2011,08,12,13,32,14.80
2011,08,12,13,33,14.80
2011,08,12,13,34,14.80
2011,08,12,13,35,14.80
2011,08,12,13,36,14.80
2011,08,12,13,37,14.90
2011,08,12,13,38,14.90
2011,08,12,13,39,14.90
2011,08,12,13,40,15.00
2011,08,12,13,41,15.10
2011,08,12,13,42,15.00
2011,08,12,13,43,15.00
2011,08,12,13,44,14.90
2011,08,12,13,45,14.80
2011,08,12,13,46,14.60
2011,08,12,13,47,14.50
2011,08,12,13,48,14.50
2011,08,12,13,49,14.50
2011,08,12,13,50,14.50
2011,08,12,13,51,14.60
2011,08,12,13,52,14.60
2011,08,12,13,53,14.60
2011,08,12,13,54,14.70
2011,08,12,13,55,14.70
2011,08,12,13,56,14.80
2011,08,12,13,57,14.80
2011,08,12,13,58,14.80
2011,08,12,13,59,14.90
2011,08,12,14,00,14.90
2011,08,12,14,01,14.90
2011,08,12,14,02,14.90
2011,08,12,14,03,14.90
2011,08,12,14,04,15.00
2011,08,12,14,05,14.90
2011,08,12,14,06,14.70
2011,08,12,14,07,14.60
2011,08,12,14,08,14.50
2011,08,12,14,09,14.40
2011,08,12,14,10,14.30
2011,08,12,14,11,14.20
2011,08,12,14,12,14.20
2011,08,12,14,13,14.20
2011,08,12,14,14,14.20
2011,08,12,14,15,14.10
2011,08,12,14,16,14.10
2011,08,12,14,17,14.10
2011,08,12,14,18,14.10
2011,08,12,14,19,14.00
2011,08,12,14,20,14.00
2011,08,12,14,21,13.90
2011,08,12,14,22,13.90
2011,08,12,14,23,13.80
2011,08,12,14,24,13.90
2011,08,12,14,25,13.90
2011,08,12,14,26,13.90
2011,08,12,14,27,13.90
2011,08,12,14,28,14.00
2011,08,12,14,29,14.00
2011,08,12,14,30,13.90
2011,08,12,14,31,13.90
2011,08,12,14,32,13.90
2011,08,12,14,33,13.80
2011,08,12,14,34,13.70
2011,08,12,14,35,13.70
2011,08,12,14,36,13.70
2011,08,12,14,37,13.70
2011,08,12,14,38,13.80
2011,08,12,14,39,13.80
2011,08,12,14,40,13.70
2011,08,12,14,41,13.60
2011,08,12,14,42,13.60
2011,08,12,14,43,13.60
2011,08,12,14,44,13.70
2011,08,12,14,45,13.70
2011,08,12,14,46,13.70
2011,08,12,14,47,13.70
2011,08,12,14,48,13.70
2011,08,12,14,49,13.70
2011,08,12,14,50,13.70
2011,08,12,14,51,13.70
2011,08,12,14,52,13.70
2011,08,12,14,53,13.70
2011,08,12,14,54,13.60
2011,08,12,14,55,13.60
2011,08,12,14,56,13.60
2011,08,12,14,57,13.70
2011,08,12,14,58,13.70
2011,08,12,14,59,13.70
2011,08,12,15,00,13.70
2011,08,12,15,01,13.70
2011,08,12,15,02,13.70
2011,08,12,15,03,13.80
2011,08,12,15,04,13.80
2011,08,12,15,05,13.80
2011,08,12,15,06,13.90
2011,08,12,15,07,14.00
2011,08,12,15,08,14.00
2011,08,12,15,09,14.00
2011,08,12,15,10,14.00
2011,08,12,15,11,14.00
2011,08,12,15,12,14.00
2011,08,12,15,13,14.00
2011,08,12,15,14,14.10
2011,08,12,15,15,14.10
2011,08,12,15,16,14.20
2011,08,12,15,17,14.40
2011,08,12,15,18,14.60
2011,08,12,15,19,14.80
2011,08,12,15,20,15.00
2011,08,12,15,21,15.20
2011,08,12,15,22,15.40
2011,08,12,15,23,15.50
2011,08,12,15,24,15.60
2011,08,12,15,25,15.80
2011,08,12,15,26,15.80
2011,08,12,15,27,16.00
2011,08,12,15,28,16.10
2011,08,12,15,29,16.10
2011,08,12,15,30,16.20
2011,08,12,15,31,16.20
2011,08,12,15,32,16.30
2011,08,12,15,33,16.30
2011,08,12,15,34,16.20
2011,08,12,15,35,16.20
2011,08,12,15,36,16.20
2011,08,12,15,37,16.30
2011,08,12,15,38,16.40
2011,08,12,15,39,16.40
2011,08,12,15,40,16.40
2011,08,12,15,41,16.40
2011,08,12,15,42,16.50
2011,08,12,15,43,16.60
2011,08,12,15,44,16.60
2011,08,12,15,45,16.70
2011,08,12,15,46,16.70
2011,08,12,15,47,16.80
2011,08,12,15,48,16.90
2011,08,12,15,49,17.00
2011,08,12,15,50,17.10
2011,08,12,15,51,17.20
2011,08,12,15,52,17.20
2011,08,12,15,53,17.40
2011,08,12,15,54,17.40
2011,08,12,15,55,17.40
2011,08,12,15,56,17.50
2011,08,12,15,57,17.60
2011,08,12,15,58,17.70
2011,08,12,15,59,17.80
2011,08,12,16,00,17.70
2011,08,12,16,01,17.70
2011,08,12,16,02,17.80
2011,08,12,16,03,17.80
2011,08,12,16,04,17.80
2011,08,12,16,05,17.90
2011,08,12,16,06,17.90
2011,08,12,16,07,17.70
2011,08,12,16,08,17.70
2011,08,12,16,09,17.70
2011,08,12,16,10,17.70
2011,08,12,16,11,17.60
2011,08,12,16,12,17.50
2011,08,12,16,13,17.40
2011,08,12,16,14,17.30
2011,08,12,16,15,17.30
2011,08,12,16,16,17.30
2011,08,12,16,17,17.30
2011,08,12,16,18,17.30
2011,08,12,16,19,17.20
2011,08,12,16,20,17.20
2011,08,12,16,21,17.20
2011,08,12,16,22,17.20
2011,08,12,16,23,17.20
2011,08,12,16,24,17.20
2011,08,12,16,25,17.20
2011,08,12,16,26,17.20
2011,08,12,16,27,17.20
2011,08,12,16,28,17.20
2011,08,12,16,29,17.20
2011,08,12,16,30,17.20
2011,08,12,16,31,17.20
2011,08,12,16,32,17.10
2011,08,12,16,33,17.10
2011,08,12,16,34,17.20
2011,08,12,16,35,17.20
2011,08,12,16,36,17.20
2011,08,12,16,37,17.20
2011,08,12,16,38,17.30
2011,08,12,16,39,17.30
2011,08,12,16,40,17.40
2011,08,12,16,41,17.40
2011,08,12,16,42,17.40
2011,08,12,16,43,17.40
2011,08,12,16,44,17.50
2011,08,12,16,45,17.60
2011,08,12,16,46,17.60
2011,08,12,16,47,17.60
2011,08,12,16,48,17.70
2011,08,12,16,49,17.70
2011,08,12,16,50,17.70
2011,08,12,16,51,17.80
2011,08,12,16,52,17.80
2011,08,12,16,53,17.80
2011,08,12,16,54,17.90
2011,08,12,16,55,17.90
2011,08,12,16,56,17.90
2011,08,12,16,57,17.90
2011,08,12,16,58,17.90
2011,08,12,16,59,17.90
2011,08,12,17,00,17.90
2011,08,12,17,01,17.90
2011,08,12,17,02,17.90
2011,08,12,17,03,17.90
2011,08,12,17,04,17.90
2011,08,12,17,05,17.80
2011,08,12,17,06,17.70
2011,08,12,17,07,17.60
2011,08,12,17,08,17.50
2011,08,12,17,09,17.50
2011,08,12,17,10,17.50
2011,08,12,17,11,17.50
2011,08,12,17,12,17.50
2011,08,12,17,13,17.60
2011,08,12,17,14,17.60
2011,08,12,17,15,17.50
2011,08,12,17,16,17.50
2011,08,12,17,17,17.50
2011,08,12,17,18,17.50
2011,08,12,17,19,17.60
2011,08,12,17,20,17.60
2011,08,12,17,21,17.50
2011,08,12,17,22,17.40
2011,08,12,17,23,17.30
2011,08,12,17,24,17.40
2011,08,12,17,25,17.40
2011,08,12,17,26,17.40
2011,08,12,17,27,17.30
2011,08,12,17,28,17.30
2011,08,12,17,29,17.20
2011,08,12,17,30,17.20
2011,08,12,17,31,17.10